SSETI-EXPRESS

Satellite information

Favourite Embed

Satellite Type and Status

PAYLOADIN ORBIT

Key statistics

Satellite SSETI-EXPRESS at a glance.

Uptime

7352

Days in orbit

Revolutions

≈ 14.7

Per day

Orbit

SSO

Sun Synchronous Orbit

Inclination

98.3

Latest

Satellite identification and parameters

Extended collection of information and parameters for SSETI-EXPRESS.

Object identification

Identified? True

Debris? False

Object name: SSETI-EXPRESS

International designator: 2005-043E

Object number (NORAD): 28894

Object ID (CCSDS): 28894

Country: EUROPEAN SPACE AGENCY (ESA)

Current information (Y/N): Y

RCS size: MEDIUM

Orbital parameters

Period: 98.288 minutes

Inclination: 98.2802 deg

SMA: 7054.925 km

Apoapsis: 688.558 km

Periapsis: 665.022 km

RAAN: 119.6583 deg

Eccentricy: 0.00166802

Argument of periapsis: 142.342 deg

Mean anomaly: 217.8954 deg

Mean motion: 14.65089479 rev/day

Mean motion (dot): 0.00001207 rev/day2

B* drag term: 0.00023370169 1/REarth

Two-line elements (TLE)

Creation date: Dec. 12, 2025, 10:14 a.m.

Reference frame: TEME

Reference center: EARTH

Epoch: Dec. 12, 2025, 6:38 a.m. UTC

TLE line 0: 0 SSETI-EXPRESS

TLE line 1: 1 28894U 05043E 25346.27668442 .00001207 00000-0 23370-3 0 9990

TLE line 2: 2 28894 98.2802 119.6583 0016680 142.3420 217.8954 14.65089479 72909

Live tracking on map

Real-time ground track for satellite SSETI-EXPRESS.

In-orbit conjunctions

A list of the most updated potential collisions computed for object SSETI-EXPRESS.

Target Orbit TCA Probability of collision Miss distance Type
SL-8 DEB LEO 2025-11-21 16:05:53 0.0002849788 621.0 (m) DEBRIS
CZ-6A DEB LEO 2024-12-22 19:34:43 0.0003988482 945.0 (m) DEBRIS
COSMOS 2251 DEB LEO 2024-09-13 11:11:04 0.0001426928 487.0 (m) DEBRIS
FENGYUN 1C DEB SSO 2024-07-28 09:02:38 0.0002481832 791.0 (m) DEBRIS

Associated space launch

Civilian surveillance satellite.

SSETI-EXPRESS was lifted into orbit during the mission ‘Kosmos-3M | Beijing-1’, on board a Kosmos-3M space rocket.

The launch took place on Oct. 27, 2005, 6:52 a.m. from 132/1 (132L).

For more information about the launch, click the button.

Launch to space Kosmos-3M | Beijing-1
Kosmos-3M | Beijing-1

Agency: N/A

Status: Launch Successful

Launch date: Oct. 27, 2005, 6:52 a.m. UTC

Rocket: Kosmos-3M

Launch pad: 132/1 (132L)

Location: Plesetsk Cosmodrome, Russian Federation

...

Latest news about this satellite

There are no fresh news available about this satellite. Check back as we update our databases every day.


Newsletter sign-up

Weekly statistics, charts and insights to help you stay on top of the space industry.